Home > Weather > Sukkur > Past weeks

Flag for Pakistan Weather for the Past 2 Weeks in Sukkur, Sindh, Pakistan

Now
63 °F

Haze.


Feels Like: 63 °F
Forecast: 55 / 78 °F
Wind: No wind

Location: Sukkur

Current Time: Feb 6, 2016 at 9:25:51 PM

Latest Report: Feb 6, 2016 at 9:00 PM


Visibility: 2 mi

Pressure: 29.86 "Hg

Humidity: 64%

Dew point: 50 °F

Location of SukkurLocation

Historic Weather in Sukkur — Graph

°F

Sukkur Temperature Yesterday

Maximum temperature yesterday: 81 °F (at 2:00 PM)
Minimum temperature yesterday: 46 °F (at 7:00 AM)
Average temperature yesterday: 65 °F

High & Low Weather Summary for the Past Weeks

 TemperatureHumidityPressure
High81 °F (Feb 4, 2:00 PM)100% (Jan 24, 7:00 PM)30.18 "Hg (Jan 24, 7:00 PM)
Low41 °F (Jan 24, 8:00 AM)26% (Feb 4, 2:00 PM)29.80 "Hg (Feb 6, 4:00 PM)
Average60 °F68%30.00 "Hg
* Reported Jan 22 8:00 PM — Feb 6 8:00 PM, Sukkur, Weather by CustomWeather, © 2016

Note: Actual official high and low records may vary slightly from our data, if they occured in-between our weather recording intervals... More about our weather records

Advertising

Sukkur Weather History for the Previous 24 Hours

 ConditionsComfort  
Time TempWeatherWind HumidityBarometerVisibility
8:00 PM
Sat, Feb 6
66 °FHaze.No wind60%29.86 "Hg2 mi
7:00 PM70 °FHaze.No wind57%29.83 "Hg2 mi
6:00 PM75 °FHaze.5 mph39%29.83 "Hg3 mi
5:00 PM75 °FHaze.5 mph39%29.80 "Hg3 mi
4:00 PM79 °FHaze.5 mph30%29.80 "Hg3 mi
3:00 PM79 °FHaze.7 mph30%29.83 "Hg3 mi
2:00 PM79 °FHaze.7 mph30%29.86 "Hg3 mi
1:00 PM77 °FHaze.5 mph36%29.89 "Hg3 mi
12:00 PM73 °FHaze.5 mph38%29.89 "Hg3 mi
11:00 AM68 °FHaze.No wind56%29.92 "Hg2 mi
10:00 AM63 °FHaze.No wind59%29.89 "Hg2 mi
9:00 AM55 °FHaze.No wind67%29.89 "Hg2 mi
8:00 AM54 °FHaze.No wind72%29.89 "Hg2 mi
7:00 AM52 °FHaze.No wind77%29.92 "Hg1 mi
6:00 AM50 °FFog.No wind82%29.92 "Hg1 mi
5:00 AM50 °FFog.No wind82%29.92 "Hg1 mi
4:00 AM52 °FFog.5 mph82%29.92 "Hg1 mi
3:00 AM54 °FHaze.5 mph77%29.92 "Hg1 mi
1:00 AM55 °FHaze.5 mph67%29.95 "Hg2 mi
10:00 PM
Fri, Feb 5
61 °FHaze.7 mph63%29.92 "Hg2 mi
9:00 PM63 °FHaze.7 mph68%29.92 "Hg2 mi
Weather by CustomWeather, © 2016

See weather overviewHow to use our weather pages